EW1160 Weather Reports


Display with metric or nautical units.
time (UTC)temp
F
wind
direction
speed
MPH
gust
MPH
rain 1hr
in
rain 24hr
in
rain mn
in
humidity
%
barometer
mb
20260831030044 66 156 0.0 0.0 0.00 0.73 0.73 93 1014.0
20260831024543 66 168 0.0 0.0 0.00 0.73 0.73 93 1014.0
20260831023026 66 165 0.0 0.0 0.00 0.73 0.73 93 1014.1
20260831021525 65 168 0.0 0.0 0.00 0.73 0.73 93 1014.0
20260831020013 65 156 0.0 0.0 0.00 0.73 0.73 93 1014.1
20260831014513 65 158 0.0 0.0 0.00 0.73 0.73 93 1014.2
20260831013012 65 156 0.0 0.0 0.00 0.73 0.73 93 1014.2
20260831011511 66 359 0.0 0.0 0.00 0.73 0.73 93 1014.3
20260831010011 66 152 0.0 0.0 0.00 0.73 0.73 93 1014.2
20260831004511 66 155 0.0 1.0 0.01 0.73 0.73 93 1014.0
20260831003010 66 157 0.0 0.0 0.06 0.73 0.73 93 1013.9
20260831001510 65 162 0.0 4.0 0.08 0.73 0.73 93 1013.7
20260831000052 65 158 0.0 3.0 0.11 0.73 0.73 93 1013.7
20260830234600 66 170 0.0 3.0 0.10 0.72 0.72 93 1014.2
20260830233034 66 172 0.0 6.0 0.09 0.67 0.67 93 1014.8
20260830231534 66 160 0.0 4.0 0.09 0.65 0.65 93 1015.3
20260830230017 66 166 0.0 2.0 0.09 0.62 0.62 93 1015.3
20260830224516 67 164 0.0 1.0 0.10 0.62 0.62 93 1015.6
20260830223114 66 164 0.0 1.0 0.09 0.57 0.57 93 1015.5
20260830221558 66 180 0.0 0.0 0.08 0.56 0.56 93 1015.3
20260830220059 66 169 0.0 3.0 0.06 0.53 0.53 93 1015.0
20260830214552 67 169 0.0 0.0 0.05 0.52 0.52 93 1014.4
20260830213039 66 359 0.0 2.0 0.02 0.49 0.49 93 1013.9
20260830211522 67 157 0.0 0.0 0.01 0.48 0.48 94 1014.1
20260830210022 67 158 0.0 2.0 0.01 0.47 0.47 94 1014.0
20260830204504 66 165 0.0 0.0 0.04 0.47 0.47 94 1014.1
20260830203008 66 158 0.0 3.0 0.08 0.47 0.47 94 1013.9
20260830201546 66 162 1.0 7.0 0.09 0.47 0.47 94 1014.3
20260830200041 66 160 0.0 5.0 0.11 0.46 0.46 93 1014.6
20260830194524 66 183 1.0 7.0 0.09 0.42 0.42 93 1014.9
20260830193021 67 172 1.0 5.0 0.09 0.39 0.39 93 1015.2
20260830191506 67 172 0.0 2.0 0.09 0.37 0.37 93 1015.4
20260830190003 67 170 1.0 6.0 0.08 0.35 0.35 93 1015.1
20260830184545 67 180 0.0 24.0 0.07 0.33 0.33 93 1015.6
20260830183044 67 181 0.0 3.0 0.04 0.30 0.30 93 1015.6
20260830181526 67 183 0.0 6.0 0.03 0.28 0.28 93 1015.4
20260830180025 67 359 0.0 6.0 0.02 0.27 0.27 93 1015.4
20260830174508 66 166 0.0 3.0 0.01 0.26 0.26 93 1015.5
20260830173007 66 166 0.0 3.0 0.01 0.26 0.26 93 1015.5
20260830171554 66 177 0.0 6.0 0.00 0.25 0.25 93 1015.6
20260830170049 66 160 4.0 9.0 0.00 0.25 0.25 93 1015.8
20260830164531 66 160 1.0 8.0 0.01 0.25 0.25 93 1016.1
20260830163036 66 176 3.0 20.0 0.04 0.25 0.25 93 1016.4
20260830161512 66 178 0.0 101.0 0.05 0.25 0.25 93 1016.4
20260830160012 66 173 0.0 2.0 0.08 0.25 0.25 93 1016.7
20260830154554 66 177 0.0 11.0 0.08 0.24 0.24 93 1016.8
20260830153054 66 174 0.0 1.0 0.05 0.21 0.21 93 1016.8
20260830151536 65 177 0.0 162.0 0.04 0.20 0.20 93 1016.8
20260830150038 65 174 0.0 1.0 0.01 0.17 0.17 93 1016.5
20260830144533 65 174 0.0 3.0 0.00 0.16 0.16 93 1016.6
20260830143034 65 177 1.0 3.0 0.04 0.16 0.16 93 1016.4
20260830141522 65 359 0.0 1.0 0.06 0.16 0.16 93 1016.4
20260830140022 65 172 0.0 3.0 0.09 0.16 0.16 93 1016.3
20260830134528 65 173 2.0 10.0 0.10 0.16 0.16 93 1016.3
20260830133021 65 173 0.0 3.0 0.07 0.11 0.11 93 1016.4
20260830131529 66 174 0.0 0.0 0.06 0.09 0.09 93 1016.6
20260830130018 66 174 0.0 1.0 0.04 0.07 0.07 93 1016.4
20260830124559 66 172 0.0 1.0 0.04 0.06 0.06 93 1016.3
20260830123108 66 173 0.0 1.0 0.02 0.04 0.04 92 1016.6
20260830121541 66 172 0.0 0.0 0.01 0.03 0.03 92 1016.7
20260830120043 66 173 0.0 0.0 0.01 0.03 0.03 92 1016.2
20260830114523 66 172 0.0 0.0 0.00 0.02 0.02 92 1016.0
20260830113023 66 172 0.0 0.0 0.00 0.02 0.02 92 1016.0
20260830111504 66 172 0.0 0.0 0.00 0.02 0.02 92 1016.2
20260830110005 66 173 0.0 0.0 0.00 0.02 0.02 92 1015.7
20260830104551 66 172 0.0 0.0 0.00 0.02 0.02 92 1015.7
20260830103051 66 172 0.0 0.0 0.01 0.02 0.02 91 1015.6
20260830101525 66 172 0.0 0.0 0.01 0.02 0.02 91 1015.7
20260830100033 66 172 0.0 0.0 0.01 0.02 0.02 90 1015.8
20260830094507 66 172 0.0 0.0 0.01 0.02 0.02 90 1015.8
20260830093006 66 172 0.0 0.0 0.01 0.01 0.01 90 1016.0
20260830091549 66 164 0.0 0.0 0.01 0.01 0.01 91 1016.4
20260830090048 66 164 0.0 0.0 0.01 0.01 0.01 91 1016.5
20260830084529 66 164 0.0 0.0 0.01 0.01 0.01 90 1016.4
20260830083029 67 164 0.0 0.0 0.00 0.00 0.00 90 1016.2
20260830081517 66 164 0.0 0.0 0.00 0.00 0.00 90 1016.7
20260830080016 66 164 0.0 0.0 0.00 0.00 0.00 89 1016.3
20260830074515 66 164 0.0 0.0 0.00 0.00 0.00 88 1016.1
20260830073014 67 164 0.0 0.0 0.00 0.00 0.00 88 1016.1
20260830071514 67 164 0.0 0.0 0.00 0.00 0.00 88 1016.0
20260830070012 67 164 0.0 0.0 0.00 0.00 0.00 87 1016.1
20260830064511 67 164 0.0 0.0 0.00 0.00 0.00 87 1016.0
20260830063009 67 164 0.0 1.0 0.00 0.00 0.00 87 1016.3
20260830061559 67 164 0.0 2.0 0.00 0.00 0.00 87 1016.4
20260830060057 67 164 0.0 0.0 0.00 0.00 0.00 88 1016.5
20260830054554 67 164 0.0 0.0 0.00 0.00 0.00 88 1016.6
20260830053053 67 164 0.0 1.0 0.00 0.00 0.00 87 1016.6
20260830051554 67 164 0.0 1.0 0.00 0.00 0.00 87 1016.7
20260830050053 67 164 0.0 2.0 0.00 0.00 0.00 87 1016.6
20260830044633 67 164 0.0 0.0 0.00 0.00 0.00 87 1016.6
20260830043050 67 164 0.0 2.0 0.00 0.00 0.00 87 1016.5
20260830041531 67 164 0.0 3.0 0.00 0.00 0.00 87 1016.5
20260830040050 68 164 0.0 3.0 0.00 0.00 0.00 87 1016.4
20260830034513 68 164 0.0 4.0 0.00 0.00 0.00 86 1016.5
20260830033013 68 164 0.0 2.0 0.00 0.00 0.00 85 1016.5
20260830031601 68 164 0.0 3.0 0.00 0.00 0.00 85 1016.3